Home > Weather > Strasbourg > Past weeks

Flag for France Weather for the Past 2 Weeks in Strasbourg, France

Now
52 °F

Light rain. Broken clouds.


Feels Like: 45 °F
Forecast: 42 / 53 °F
Wind: 23 mph from Southwest

Location: Strasbourg Airport

Current Time: Feb 8, 2016 at 3:59:04 PM

Latest Report: Feb 8, 2016 at 3:30 PM


Visibility: N/A

Pressure: 29.59 "Hg

Humidity: 72%

Dew point: 43 °F

Location of StrasbourgLocation

Historic Weather in Strasbourg — Graph

°F

Strasbourg Temperature Yesterday

Maximum temperature yesterday: 46 °F (at 12:00 AM)
Minimum temperature yesterday: 39 °F (at 2:00 AM)
Average temperature yesterday: 43 °F

High & Low Weather Summary for the Past Weeks

 TemperatureHumidityPressure
High59 °F (Jan 26, 2:30 PM)100% (Jan 25, 4:00 AM)30.54 "Hg (Jan 25, 4:00 AM)
Low32 °F (Jan 25, 4:00 AM)51% (Jan 28, 5:00 AM)29.56 "Hg (Feb 8, 12:00 PM)
Average46 °F80%30.18 "Hg
* Reported Jan 24 2:00 PM — Feb 8 2:30 PM, Strasbourg, Weather by CustomWeather, © 2016

Note: Actual official high and low records may vary slightly from our data, if they occured in-between our weather recording intervals... More about our weather records

Advertising

Strasbourg Weather History for the Previous 24 Hours

 ConditionsComfort  
Time TempWeatherWind HumidityBarometerVisibility
2:30 PM
Mon, Feb 8
54 °FBroken clouds.21 mph72%29.59 "HgN/A
2:00 PM50 °FLight rain. Mostly cloudy.20 mph82%29.59 "HgN/A
1:30 PM50 °FLight rain. Broken clouds.12 mph82%29.56 "HgN/A
1:00 PM52 °FRain. More clouds than sun.22 mph72%29.56 "HgN/A
12:30 PM54 °FMostly cloudy.23 mph67%29.56 "HgN/A
12:00 PM54 °FMore clouds than sun.16 mph67%29.56 "HgN/A
11:30 AM52 °FMostly cloudy.16 mph72%29.59 "HgN/A
11:00 AM52 °FPartly sunny.15 mph67%29.59 "HgN/A
10:30 AM50 °FMostly cloudy.20 mph71%29.59 "HgN/A
10:00 AM50 °FPartly sunny.22 mph67%29.62 "HgN/A
9:30 AM50 °FMostly cloudy.20 mph67%29.62 "HgN/A
9:00 AM48 °FPartly sunny.16 mph66%29.65 "HgN/A
8:00 AM46 °FMostly cloudy.16 mph66%29.68 "HgN/A
7:30 AM46 °FMostly cloudy.16 mph66%29.68 "HgN/A
7:00 AM46 °FMostly cloudy.18 mph66%29.68 "HgN/A
6:30 AM46 °FOvercast.16 mph66%29.71 "HgN/A
6:00 AM45 °FMostly cloudy.13 mph71%29.71 "HgN/A
5:30 AM45 °FMostly cloudy.13 mph71%29.74 "HgN/A
5:00 AM45 °FOvercast.15 mph71%29.74 "HgN/A
4:30 AM45 °FMostly cloudy.16 mph71%29.74 "HgN/A
4:00 AM45 °FOvercast.17 mph71%29.77 "HgN/A
3:30 AM43 °FOvercast.14 mph76%29.77 "HgN/A
3:00 AM43 °FPartly cloudy.12 mph76%29.80 "HgN/A
2:00 AM41 °FClear.12 mph81%29.80 "Hg10 mi
1:30 AM39 °FClear.7 mph87%29.83 "Hg10 mi
1:00 AM39 °FClear.8 mph87%29.83 "Hg10 mi
12:30 AM41 °FClear.9 mph81%29.83 "Hg10 mi
12:00 AM41 °FPassing clouds.10 mph87%29.86 "HgN/A
11:30 PM
Sun, Feb 7
43 °FPassing clouds.12 mph81%29.86 "HgN/A
11:00 PM43 °FPassing clouds.12 mph81%29.86 "HgN/A
10:30 PM43 °FOvercast.12 mph81%29.86 "HgN/A
10:00 PM43 °FOvercast.13 mph81%29.86 "HgN/A
9:30 PM43 °FOvercast.12 mph81%29.86 "HgN/A
9:00 PM43 °FPassing clouds.13 mph81%29.86 "HgN/A
8:30 PM43 °FMostly cloudy.14 mph81%29.86 "HgN/A
8:00 PM43 °FOvercast.13 mph81%29.86 "HgN/A
7:30 PM43 °FPassing clouds.12 mph81%29.86 "HgN/A
7:00 PM43 °FMostly cloudy.9 mph87%29.86 "HgN/A
6:30 PM43 °FMostly cloudy.10 mph87%29.83 "HgN/A
6:00 PM45 °FMostly cloudy.12 mph81%29.83 "HgN/A
5:30 PM45 °FMostly cloudy.12 mph81%29.80 "HgN/A
5:00 PM45 °FMostly cloudy.12 mph87%29.80 "HgN/A
4:30 PM45 °FPartly sunny.14 mph87%29.80 "HgN/A
4:00 PM46 °FMostly cloudy.10 mph82%29.77 "HgN/A
3:30 PM46 °FOvercast.9 mph76%29.77 "HgN/A
3:00 PM46 °FMostly cloudy.12 mph76%29.77 "HgN/A
Weather by CustomWeather, © 2016

See weather overviewHow to use our weather pages